NOAA 16 DEB, 42368

Orbit data source: Space-Track

NOAA 16 DEB, 42368 is space debris in SSO originally from a launch on Thu, 21 Sep 2000 UTC launched from the Air Force Western Test Range (AFWTR). Debris objects in space refer to the collection of defunct objects orbiting the Earth. Examples of debris include non-operational satellites, rocket bodies, and fragments generated from explosions, collisions, or faulty payload assembly.

Loading next visibility...
Identifier
42368, 2000-055RL
Orbit
SSO
Country
Flag of USUS
Related business
Manufacturer
Unknown
Mission
Spacecraft
Bus & Motor
Unknown
Mass
Unknown
Launch date (UTC)
2000-09-21 (26 years ago)
Launch vehicle
Unknown
Launch site
Air Force Western Test Range (AFWTR)
Object type
Payload
Rocket body
Debris
Shape & HBR
Unknown shape, 0.1 m
Radar Cross Section
Small (<0.1 m²)

Expand to show TLE details & history
Last TLE update: 2 days ago

TLE from 2 days ago
0 NOAA 16 DEB
1 42368U 00055RL  26171.17297491  .00002811  00000-0  11182-2 0  9997
2 42368  98.7189 253.1350 0011396  66.6877 293.5503 14.29437520527688
Epoch: 2026-06-20T04:09Z
TLE epoch observation values (Epoch: 2026-06-20T04:09:05.032Z)
Latitude
0.00001°
Longitude
-77.52737°
Altitude
793.28 km
Speed
7.459 km/s
True Right ascension
16h 52m 32s
True Declination
0° 00' 00"
Sunlit
Object was in full shadow at epoch
Visualization orbit readout
Latitude
Unknown
Longitude
Unknown
Altitude
Unknown
Speed
Unknown
Apparent Right ascension
Unknown
Apparent Declination
Unknown
Sunlit
N/A
Visualization observer readout
Local Sidereal Time
21:39:04
Azimuth
Unknown
Elevation
Unknown
Doppler factor
Unknown
Orbital elements
Apogee altitude
798.928 km
Perigee altitude
782.588 km
Semi-major axis
7,168.895 km
Eccentricity
0.00114
Inclination
98.7189°
RAAN
253.135°
Arg. of periapsis
66.6877°
True anomaly
293.43052°
Mean anomaly
293.5503°
Eccentric anomaly
293.49042°
Mean motion
3.57573 °/min
Orbital period
100.68 mins
BSTAR
0.0011182
Loading maneuver chart data...
Computing Atmospheric mass density...
Loading historical data...
Loading historical data...
Loading historical data...
Loading historical data...
Loading historical data...
Loading historical data...
Loading historical data...

Documentation

Showing up to 5 results
|